CZ-4B R/B

Last updated on Thu Jul 03 2025 00:02:15 GMT+0000 (Coordinated Universal Time)

1 29507U 06046C 25183.60470415 .00003802 00000+0 21016-3 0 9990 2 29507 97.5942 224.1791 0036714 53.9411 306.5212 15.13933299 22177
UTC large
Height (km)
Speed (km/s)
/
Latitude / Longitude
Inclination (degrees)
Orbital Period (minutes)
Azimuth
Elevation
Range (km)
Doppler Factor

Next 0 passes for location: London (51.5072 / 0.1276)

Sorry there are no passes over London.